When you browse on this site, cookies collect data to enhance your experience and personalize the content and advertising you see.
Visit our Privacy Policy to learn more. By continuing to use the site, you agree to this use of cookies and data.
  • In Spain
  • List of Countries
  • For 7 days
  • Water Temperature
  • Satellite Maps
  • Weather Map
  • Weather Widgets
  • user-avatar
    Login

    Hourly Weather Starye Vyselki

    Today, 24 June, Monday

    Time Temperature Precipitation Wind Pressure Humidity
    00:00 +18°C° 2 mm 3 mps 742 mmHg 92%
    01:00 +18°C° 0.4 mm 3 mps 742 mmHg 93%
    02:00 +17°C° 0.4 mm 3 mps 743 mmHg 94%
    03:00 +17°C° 0 mm 4 mps 743 mmHg 93%
    04:00 +15°C° 0.4 mm 4 mps 743 mmHg 93%
    05:00 +15°C° 0.4 mm 4 mps 743 mmHg 92%
    06:00 +15°C° 0.4 mm 4 mps 743 mmHg 92%
    07:00 +15°C° 0.2 mm 4 mps 743 mmHg 89%
    08:00 +17°C° 0.2 mm 4 mps 743 mmHg 86%
    09:00 +18°C° 0 mm 4 mps 744 mmHg 82%
    10:00 +19°C° 0 mm 4 mps 744 mmHg 76%
    11:00 +21°C° 0 mm 4 mps 744 mmHg 70%
    12:00 +22°C° 0 mm 4 mps 744 mmHg 64%
    13:00 +22°C° 0 mm 4 mps 744 mmHg 64%
    14:00 +23°C° 0 mm 4 mps 744 mmHg 64%
    15:00 +23°C° 0 mm 4 mps 744 mmHg 64%
    16:00 +23°C° 0 mm 4 mps 744 mmHg 65%
    17:00 +23°C° 0 mm 4 mps 744 mmHg 67%
    18:00 +22°C° 0 mm 3 mps 744 mmHg 68%
    19:00 +21°C° 0 mm 3 mps 744 mmHg 70%
    20:00 +19°C° 0 mm 2 mps 745 mmHg 71%
    21:00 +17°C° 0 mm 2 mps 745 mmHg 73%
    22:00 +17°C° 0 mm 2 mps 745 mmHg 74%
    23:00 +16°C° 0 mm 2 mps 745 mmHg 75%

    Tomorrow, 25 June, Tuesday

    Time Temperature Precipitation Wind Pressure Humidity
    00:00 +14°C° 0 mm 3 mps 745 mmHg 76%
    01:00 +15°C° 0 mm 2 mps 746 mmHg 75%
    02:00 +14°C° 0 mm 2 mps 746 mmHg 74%
    03:00 +14°C° 0 mm 2 mps 747 mmHg 74%
    04:00 +14°C° 0 mm 2 mps 747 mmHg 76%
    05:00 +14°C° 0 mm 2 mps 747 mmHg 77%
    06:00 +13°C° 0 mm 3 mps 747 mmHg 79%
    07:00 +16°C° 0 mm 3 mps 747 mmHg 74%
    08:00 +17°C° 0 mm 4 mps 748 mmHg 68%
    09:00 +19°C° 0 mm 4 mps 748 mmHg 63%
    10:00 +19°C° 0 mm 4 mps 748 mmHg 60%
    11:00 +20°C° 0 mm 4 mps 748 mmHg 58%
    12:00 +21°C° 0 mm 4 mps 748 mmHg 56%
    13:00 +21°C° 0 mm 4 mps 748 mmHg 55%
    14:00 +21°C° 0 mm 4 mps 748 mmHg 55%
    15:00 +22°C° 0 mm 4 mps 748 mmHg 54%
    16:00 +21°C° 0 mm 3 mps 748 mmHg 57%
    17:00 +21°C° 0 mm 3 mps 748 mmHg 61%
    18:00 +21°C° 0 mm 2 mps 748 mmHg 64%
    19:00 +19°C° 0 mm 2 mps 748 mmHg 67%
    20:00 +17°C° 0 mm 2 mps 748 mmHg 70%
    21:00 +16°C° 0 mm 2 mps 748 mmHg 73%
    22:00 +15°C° 0 mm 1 mps 748 mmHg 73%
    23:00 +14°C° 0 mm 1 mps 748 mmHg 74%

    Day after tomorrow, 26 June, Wednesday

    Time Temperature Precipitation Wind Pressure Humidity
    00:00 +12°C° 0 mm 0 mps 748 mmHg 74%
    01:00 +13°C° 0 mm 1 mps 748 mmHg 75%
    02:00 +13°C° 0 mm 1 mps 748 mmHg 76%
    03:00 +12°C° 0 mm 1 mps 748 mmHg 77%
    04:00 +13°C° 0 mm 1 mps 748 mmHg 78%
    05:00 +14°C° 0 mm 1 mps 748 mmHg 78%
    06:00 +14°C° 0 mm 1 mps 747 mmHg 79%
    07:00 +16°C° 0 mm 1 mps 747 mmHg 75%
    08:00 +18°C° 0 mm 1 mps 747 mmHg 71%
    09:00 +18°C° 0 mm 2 mps 747 mmHg 67%
    10:00 +19°C° 0 mm 2 mps 747 mmHg 64%
    11:00 +20°C° 0 mm 3 mps 746 mmHg 61%
    12:00 +21°C° 0 mm 3 mps 746 mmHg 58%
    13:00 +22°C° 0 mm 4 mps 746 mmHg 58%
    14:00 +22°C° 0 mm 4 mps 745 mmHg 58%
    15:00 +22°C° 0 mm 4 mps 745 mmHg 57%
    16:00 +21°C° 0.2 mm 4 mps 744 mmHg 63%
    17:00 +21°C° 0.2 mm 4 mps 744 mmHg 69%
    18:00 +20°C° 0.2 mm 3 mps 743 mmHg 75%
    19:00 +18°C° 0.1 mm 3 mps 743 mmHg 81%
    20:00 +17°C° 0.1 mm 3 mps 742 mmHg 86%
    21:00 +15°C° 0.1 mm 2 mps 742 mmHg 92%
    22:00 +15°C° 0 mm 2 mps 742 mmHg 92%
    23:00 +14°C° 0 mm 1 mps 741 mmHg 92%

    27 June, Thursday

    Time Temperature Precipitation Wind Pressure Humidity
    00:00 +14°C° 0 mm 1 mps 741 mmHg 93%
    01:00 +14°C° 0 mm 1 mps 741 mmHg 93%
    02:00 +14°C° 0 mm 1 mps 740 mmHg 93%
    03:00 +14°C° 0 mm 1 mps 740 mmHg 93%
    04:00 +14°C° 0 mm 1 mps 739 mmHg 92%
    05:00 +13°C° 0 mm 0 mps 739 mmHg 92%
    06:00 +13°C° 0 mm 0 mps 738 mmHg 91%
    07:00 +14°C° 0.4 mm 1 mps 738 mmHg 92%
    08:00 +14°C° 0.4 mm 2 mps 737 mmHg 93%
    09:00 +13°C° 0.4 mm 3 mps 736 mmHg 94%
    10:00 +14°C° 0.8 mm 3 mps 736 mmHg 94%
    11:00 +14°C° 0.8 mm 4 mps 735 mmHg 94%
    12:00 +15°C° 0.8 mm 5 mps 734 mmHg 93%
    13:00 +15°C° 1.2 mm 6 mps 733 mmHg 93%
    14:00 +16°C° 1.2 mm 6 mps 733 mmHg 93%
    15:00 +17°C° 1.2 mm 6 mps 732 mmHg 93%
    16:00 +17°C° 1.5 mm 6 mps 731 mmHg 92%
    17:00 +19°C° 1.5 mm 6 mps 730 mmHg 91%
    18:00 +19°C° 1.5 mm 5 mps 729 mmHg 90%
    19:00 +19°C° 1.7 mm 6 mps 728 mmHg 91%
    20:00 +19°C° 1.7 mm 6 mps 727 mmHg 91%
    21:00 +19°C° 1.7 mm 6 mps 726 mmHg 91%
    22:00 +17°C° 1.5 mm 6 mps 725 mmHg 92%
    23:00 +16°C° 1.5 mm 6 mps 724 mmHg 93%

    28 June, Friday

    Time Temperature Precipitation Wind Pressure Humidity
    00:00 +16°C° 1.5 mm 6 mps 723 mmHg 94%
    01:00 +15°C° 0.1 mm 5 mps 723 mmHg 94%
    02:00 +15°C° 0.1 mm 5 mps 723 mmHg 95%
    03:00 +14°C° 0.1 mm 5 mps 722 mmHg 95%
    04:00 +14°C° 0 mm 5 mps 722 mmHg 94%
    05:00 +14°C° 0 mm 5 mps 722 mmHg 93%
    06:00 +13°C° 0 mm 6 mps 722 mmHg 93%
    07:00 +13°C° 0 mm 6 mps 721 mmHg 91%
    08:00 +13°C° 0 mm 6 mps 721 mmHg 89%
    09:00 +13°C° 0 mm 6 mps 721 mmHg 88%
    10:00 +14°C° 0.1 mm 7 mps 721 mmHg 87%
    11:00 +14°C° 0.1 mm 7 mps 721 mmHg 86%
    12:00 +14°C° 0.1 mm 7 mps 720 mmHg 86%
    13:00 +12°C° 0.7 mm 7 mps 720 mmHg 88%
    14:00 +11°C° 0.7 mm 8 mps 720 mmHg 91%
    15:00 +11°C° 0.7 mm 8 mps 720 mmHg 94%
    16:00 +11°C° 0.9 mm 7 mps 720 mmHg 94%
    17:00 +10°C° 0.9 mm 7 mps 719 mmHg 94%
    18:00 +10°C° 0.9 mm 7 mps 719 mmHg 94%
    19:00 +10°C° 0.5 mm 7 mps 719 mmHg 95%
    20:00 +10°C° 0.5 mm 6 mps 719 mmHg 95%
    21:00 +10°C° 0.5 mm 6 mps 719 mmHg 96%
    22:00 +10°C° 0.3 mm 6 mps 719 mmHg 95%
    23:00 +10°C° 0.3 mm 6 mps 719 mmHg 95%

    29 June, Saturday

    Time Temperature Precipitation Wind Pressure Humidity
    00:00 +10°C° 0.3 mm 6 mps 719 mmHg 95%
    01:00 +10°C° 0.4 mm 7 mps 719 mmHg 95%
    02:00 +10°C° 0.4 mm 7 mps 719 mmHg 95%
    03:00 +10°C° 0.4 mm 7 mps 718 mmHg 95%
    04:00 +10°C° 0.3 mm 7 mps 718 mmHg 95%
    05:00 +10°C° 0.3 mm 7 mps 718 mmHg 95%
    06:00 +9°C° 0.3 mm 7 mps 718 mmHg 95%
    07:00 +9°C° 0.8 mm 7 mps 718 mmHg 95%
    08:00 +9°C° 0.8 mm 7 mps 718 mmHg 95%
    09:00 +9°C° 0.8 mm 7 mps 719 mmHg 95%
    10:00 +9°C° 0.5 mm 7 mps 719 mmHg 95%
    11:00 +9°C° 0.5 mm 7 mps 719 mmHg 95%
    12:00 +10°C° 0.5 mm 7 mps 720 mmHg 94%
    13:00 +9°C° 0.2 mm 7 mps 720 mmHg 94%
    14:00 +9°C° 0.2 mm 7 mps 720 mmHg 94%
    15:00 +9°C° 0.2 mm 7 mps 720 mmHg 94%
    16:00 +9°C° 0.4 mm 6 mps 721 mmHg 95%
    17:00 +9°C° 0.4 mm 6 mps 721 mmHg 96%
    18:00 +9°C° 0.4 mm 5 mps 721 mmHg 96%
    19:00 +9°C° 0.4 mm 5 mps 721 mmHg 96%
    20:00 +10°C° 0.4 mm 4 mps 721 mmHg 97%
    21:00 +10°C° 0.4 mm 4 mps 722 mmHg 97%
    22:00 +10°C° 0.4 mm 4 mps 722 mmHg 97%
    23:00 +10°C° 0.4 mm 4 mps 721 mmHg 97%
    Show more